sat.trackr.live / text

‹ back to catalog

2023-069A

NORAD 56731 · 2023-069A

PAYLOAD ACTIVE UNKNOWN

§ Identity

Operator
Country
PRC
Launch date
2023-05-21
Launch site
JSC
Launch vehicle
Mass (kg)
RCS (m²)

External: N2YO · Heavens-Above · Gunter

§ Orbital elements

Epoch: 2026-09-21T14:54:36.345600Z

Period
93.32 min
Inclination
40.9960°
Eccentricity
0.0006481
Mean motion
15.43082808 rev/d
Perigee alt
432.6 km
Apogee alt
441.4 km
Semi-major
6,815.2 km
B*
1.3766e-4
RAAN
322.7648°
Arg perigee
268.4723°
Mean anomaly
91.5359°
Rev number
18,794

§ Raw data

2023-069A1 56731U 23069A   26264.62125400  .00005984  00000+0  13766-3 0  99932 56731  40.9960 322.7648 0006481 268.4723  91.5359 15.43082808187945

JSON: /api/v1/satellites/56731 · /tle

For live sub-satellite position, see the globe view (requires WebGL).

§ Visibility from observer

Set your observer location to see the next 7 days of passes ≥ 10°. The values pass through the URL so the page stays shareable.

No JS? Fill the form by hand. The geolocation button needs JavaScript.

§ Radio — SatNOGS DB

ModeDescriptionDownlinkUplink
FM S-band telemetry 2.207 GHz

1 transmitter · refreshed weekly from db.satnogs.org